ANA9001 RJTT-RJOO

Flight info

Callsign ANA9001
Flight time 0h 47m
Altitude 28000
Route LAXAS Y56 TOHME Y54 KOHWA Y546 AGPUK DCT MIRAI DCT ABENO DCT IKOMA
Aircraft A321/M-SDE2FGHIJ3J4J5M1P2RWXY/LB1D1

Departure

Time 2026-05-06 13:54
Airport Tokyo Haneda International Airport (RJTT)

Arrival

Time 2026-05-06 14:41
Airport Osaka Itami International Airport (RJOO)
Time Latitude Longitude Altitude Speed Heading
2026-05-06 13:33 35.54394 139.79717 22 ft 0 kts 240°
2026-05-06 13:41 35.54395 139.79720 22 ft 2 kts 240°
2026-05-06 13:42 35.54408 139.79747 21 ft 3 kts 240°
2026-05-06 13:42 35.54420 139.79769 21 ft 4 kts 221°
2026-05-06 13:42 35.54443 139.79783 22 ft 4 kts 182°
2026-05-06 13:42 35.54468 139.79778 24 ft 4 kts 152°
2026-05-06 13:43 35.54487 139.79764 23 ft 1 kts 150°
2026-05-06 13:43 35.54488 139.79764 23 ft 0 kts 150°
2026-05-06 13:47 35.54479 139.79770 24 ft 4 kts 150°
2026-05-06 13:47 35.54447 139.79793 23 ft 10 kts 150°
2026-05-06 13:47 35.54367 139.79849 21 ft 15 kts 150°
2026-05-06 13:48 35.54271 139.79917 21 ft 17 kts 149°
2026-05-06 13:48 35.54166 139.79992 21 ft 18 kts 150°
2026-05-06 13:48 35.54060 139.80067 21 ft 15 kts 150°
2026-05-06 13:48 35.53988 139.80118 21 ft 11 kts 150°
2026-05-06 13:49 35.53919 139.80167 21 ft 12 kts 149°
2026-05-06 13:49 35.53843 139.80196 22 ft 12 kts 191°
2026-05-06 13:49 35.53758 139.80178 22 ft 14 kts 173°
2026-05-06 13:49 35.53665 139.80192 25 ft 12 kts 169°
2026-05-06 13:50 35.53597 139.80231 28 ft 10 kts 150°
2026-05-06 13:50 35.53545 139.80269 30 ft 8 kts 149°
2026-05-06 13:50 35.53476 139.80317 30 ft 16 kts 150°
2026-05-06 13:50 35.53344 139.80408 36 ft 26 kts 150°
2026-05-06 13:51 35.53192 139.80519 44 ft 25 kts 149°
2026-05-06 13:51 35.53056 139.80615 46 ft 18 kts 150°
2026-05-06 13:51 35.52974 139.80662 48 ft 10 kts 175°
2026-05-06 13:51 35.52913 139.80631 49 ft 10 kts 200°
2026-05-06 13:52 35.52849 139.80661 47 ft 12 kts 134°
2026-05-06 13:52 35.52796 139.80731 48 ft 10 kts 133°
2026-05-06 13:52 35.52790 139.80784 48 ft 6 kts 54°
2026-05-06 13:52 35.52806 139.80802 51 ft 0 kts 43°
2026-05-06 13:53 35.52837 139.80838 49 ft 29 kts 44°
2026-05-06 13:53 35.53233 139.81282 49 ft 119 kts 43°
2026-05-06 13:53 35.53981 139.82146 287 ft 160 kts 47°
2026-05-06 13:54 35.54726 139.83166 1015 ft 163 kts 65°
2026-05-06 13:54 35.54876 139.84517 1711 ft 162 kts 111°
2026-05-06 13:54 35.54529 139.85867 2296 ft 176 kts 112°
2026-05-06 13:54 35.54161 139.87392 2768 ft 195 kts 112°
2026-05-06 13:55 35.53739 139.89081 3259 ft 220 kts 113°
2026-05-06 13:55 35.52914 139.90737 3780 ft 240 kts 142°
2026-05-06 13:55 35.51400 139.91707 4297 ft 253 kts 173°
2026-05-06 13:55 35.49669 139.91552 5309 ft 252 kts 202°
2026-05-06 13:56 35.48167 139.90455 6420 ft 254 kts 222°
2026-05-06 13:56 35.46979 139.88849 7505 ft 255 kts 231°
2026-05-06 13:56 35.45835 139.87162 8606 ft 258 kts 231°
2026-05-06 13:56 35.44679 139.85451 9695 ft 262 kts 232°
2026-05-06 13:57 35.43501 139.83704 10503 ft 275 kts 232°
2026-05-06 13:57 35.42228 139.81812 10926 ft 300 kts 231°
2026-05-06 13:57 35.40863 139.79782 11518 ft 315 kts 231°
2026-05-06 13:57 35.39448 139.77680 12390 ft 322 kts 231°
2026-05-06 13:58 35.38008 139.75546 13290 ft 328 kts 231°
2026-05-06 13:58 35.36538 139.73372 14148 ft 334 kts 231°
2026-05-06 13:58 35.35045 139.71166 14972 ft 338 kts 232°
2026-05-06 13:58 35.33536 139.68937 15882 ft 341 kts 232°
2026-05-06 13:59 35.32019 139.66697 16764 ft 343 kts 232°
2026-05-06 13:59 35.30491 139.64441 17651 ft 345 kts 232°
2026-05-06 13:59 35.28956 139.62173 18496 ft 348 kts 232°
2026-05-06 13:59 35.27422 139.59911 19256 ft 349 kts 232°
2026-05-06 14:00 35.25874 139.57625 20031 ft 350 kts 232°
2026-05-06 14:00 35.24335 139.55312 20805 ft 349 kts 235°
2026-05-06 14:00 35.23231 139.52682 21551 ft 350 kts 251°
2026-05-06 14:00 35.22688 139.49764 22300 ft 352 kts 256°
2026-05-06 14:01 35.22205 139.46831 23054 ft 353 kts 256°
2026-05-06 14:01 35.21727 139.43884 23756 ft 354 kts 256°
2026-05-06 14:01 35.21246 139.40920 24329 ft 354 kts 256°
2026-05-06 14:01 35.20762 139.37962 24885 ft 357 kts 256°
2026-05-06 14:02 35.20270 139.34984 25479 ft 358 kts 256°
2026-05-06 14:02 35.19779 139.32003 26059 ft 359 kts 256°
2026-05-06 14:02 35.19281 139.28995 26616 ft 361 kts 256°
2026-05-06 14:02 35.18779 139.25973 27189 ft 362 kts 256°
2026-05-06 14:03 35.18279 139.22959 27722 ft 363 kts 256°
2026-05-06 14:03 35.17772 139.19925 28073 ft 365 kts 256°
2026-05-06 14:03 35.16779 139.13970 28148 ft 350 kts 256°
2026-05-06 14:04 35.15818 139.08202 28139 ft 349 kts 256°
2026-05-06 14:04 35.14843 139.02385 28150 ft 349 kts 256°
2026-05-06 14:05 35.13870 138.96582 28157 ft 348 kts 256°
2026-05-06 14:05 35.12893 138.90791 28180 ft 348 kts 256°
2026-05-06 14:06 35.11911 138.85015 28161 ft 346 kts 256°
2026-05-06 14:06 35.10934 138.79267 28151 ft 345 kts 256°
2026-05-06 14:07 35.09961 138.73533 28147 ft 345 kts 256°
2026-05-06 14:07 35.09145 138.68774 28141 ft 344 kts 256°
2026-05-06 14:08 35.08164 138.63054 28130 ft 344 kts 256°
2026-05-06 14:08 35.07181 138.57327 28126 ft 345 kts 256°
2026-05-06 14:09 35.06029 138.50675 28120 ft 345 kts 256°
2026-05-06 14:09 35.05208 138.45902 28118 ft 345 kts 256°
2026-05-06 14:10 35.04211 138.40127 28116 ft 346 kts 256°
2026-05-06 14:10 35.03214 138.34420 28121 ft 346 kts 256°
2026-05-06 14:11 35.02207 138.28674 28120 ft 347 kts 256°
2026-05-06 14:11 35.01200 138.22915 28125 ft 346 kts 256°
2026-05-06 14:12 35.00192 138.17169 28111 ft 348 kts 256°
2026-05-06 14:12 34.99172 138.11387 28107 ft 349 kts 256°
2026-05-06 14:13 34.98155 138.05593 28105 ft 349 kts 256°
2026-05-06 14:13 34.97136 137.99799 28106 ft 351 kts 256°
2026-05-06 14:14 34.96104 137.93986 28107 ft 351 kts 256°
2026-05-06 14:14 34.95064 137.88163 28110 ft 352 kts 256°
2026-05-06 14:15 34.94024 137.82356 28111 ft 349 kts 256°
2026-05-06 14:15 34.92991 137.76570 28107 ft 351 kts 256°
2026-05-06 14:16 34.91944 137.70754 28106 ft 352 kts 256°
2026-05-06 14:16 34.90610 137.65021 28112 ft 352 kts 250°
2026-05-06 14:17 34.88925 137.59408 28107 ft 353 kts 249°
2026-05-06 14:17 34.87234 137.53781 28107 ft 354 kts 249°
2026-05-06 14:18 34.85536 137.48142 28111 ft 355 kts 249°
2026-05-06 14:18 34.83877 137.42477 28115 ft 355 kts 250°
2026-05-06 14:19 34.82285 137.36837 28109 ft 355 kts 250°
2026-05-06 14:19 34.80673 137.31155 28112 ft 355 kts 250°
2026-05-06 14:20 34.79046 137.25482 28108 ft 355 kts 250°
2026-05-06 14:20 34.77411 137.19807 28109 ft 356 kts 250°
2026-05-06 14:21 34.75770 137.14128 28109 ft 356 kts 250°
2026-05-06 14:21 34.74126 137.08436 27975 ft 358 kts 250°
2026-05-06 14:22 34.73302 137.05575 27735 ft 359 kts 250°
2026-05-06 14:22 34.72473 137.02703 27484 ft 361 kts 250°
2026-05-06 14:22 34.71637 136.99818 27236 ft 362 kts 250°
2026-05-06 14:22 34.70797 136.96934 26735 ft 360 kts 250°
2026-05-06 14:23 34.69959 136.94057 25971 ft 362 kts 250°
2026-05-06 14:23 34.69119 136.91177 25324 ft 361 kts 250°
2026-05-06 14:23 34.68282 136.88305 24687 ft 360 kts 250°
2026-05-06 14:23 34.67449 136.85448 24048 ft 359 kts 250°
2026-05-06 14:24 34.66620 136.82603 23207 ft 364 kts 251°
2026-05-06 14:24 34.65776 136.79705 22441 ft 364 kts 251°
2026-05-06 14:24 34.64933 136.76813 21732 ft 363 kts 250°
2026-05-06 14:24 34.64091 136.73931 21037 ft 361 kts 250°
2026-05-06 14:25 34.63253 136.71066 20368 ft 359 kts 250°
2026-05-06 14:25 34.62412 136.68204 19685 ft 358 kts 250°
2026-05-06 14:25 34.61573 136.65362 19034 ft 357 kts 250°
2026-05-06 14:25 34.60736 136.62527 18411 ft 356 kts 250°
2026-05-06 14:26 34.59902 136.59702 17719 ft 355 kts 250°
2026-05-06 14:26 34.59070 136.56887 17078 ft 353 kts 250°
2026-05-06 14:26 34.58245 136.54087 16442 ft 351 kts 250°
2026-05-06 14:26 34.57425 136.51302 15841 ft 349 kts 250°
2026-05-06 14:27 34.56610 136.48537 15265 ft 347 kts 250°
2026-05-06 14:27 34.55851 136.45765 14701 ft 345 kts 257°
2026-05-06 14:27 34.55700 136.42920 14548 ft 331 kts 272°
2026-05-06 14:27 34.55862 136.40234 14435 ft 317 kts 273°
2026-05-06 14:28 34.56031 136.37588 14297 ft 304 kts 273°
2026-05-06 14:28 34.56192 136.35089 14013 ft 299 kts 273°
2026-05-06 14:28 34.56350 136.32576 13600 ft 297 kts 272°
2026-05-06 14:28 34.56505 136.30087 13183 ft 295 kts 273°
2026-05-06 14:29 34.56660 136.27609 12929 ft 295 kts 273°
2026-05-06 14:29 34.56816 136.25132 12673 ft 294 kts 273°
2026-05-06 14:29 34.56973 136.22656 12422 ft 293 kts 273°
2026-05-06 14:29 34.57131 136.20188 12169 ft 292 kts 273°
2026-05-06 14:30 34.57288 136.17737 11917 ft 291 kts 273°
2026-05-06 14:30 34.57445 136.15291 11678 ft 290 kts 273°
2026-05-06 14:30 34.57598 136.12855 11434 ft 289 kts 273°
2026-05-06 14:30 34.57749 136.10435 11099 ft 286 kts 273°
2026-05-06 14:31 34.57897 136.08032 10701 ft 285 kts 273°
2026-05-06 14:31 34.58044 136.05642 10299 ft 283 kts 273°
2026-05-06 14:31 34.58189 136.03265 9887 ft 281 kts 273°
2026-05-06 14:31 34.58333 136.00905 9435 ft 280 kts 273°
2026-05-06 14:32 34.58476 135.98556 9001 ft 278 kts 273°
2026-05-06 14:32 34.58620 135.96215 8574 ft 277 kts 273°
2026-05-06 14:32 34.58765 135.93886 8144 ft 276 kts 273°
2026-05-06 14:32 34.58907 135.91574 7718 ft 274 kts 273°
2026-05-06 14:33 34.59045 135.89273 7307 ft 273 kts 272°
2026-05-06 14:33 34.59181 135.86985 6905 ft 271 kts 272°
2026-05-06 14:33 34.59333 135.84433 6428 ft 270 kts 272°
2026-05-06 14:33 34.59469 135.82163 5990 ft 269 kts 272°
2026-05-06 14:34 34.59603 135.79915 5755 ft 265 kts 272°
2026-05-06 14:34 34.59692 135.78430 5622 ft 258 kts 272°
2026-05-06 14:34 34.59863 135.75619 5347 ft 246 kts 272°
2026-05-06 14:34 34.59946 135.74240 5215 ft 241 kts 272°
2026-05-06 14:35 34.60102 135.71599 4954 ft 232 kts 272°
2026-05-06 14:35 34.60219 135.69666 4756 ft 228 kts 272°
2026-05-06 14:35 34.60331 135.67766 4560 ft 222 kts 272°
2026-05-06 14:35 34.60416 135.66535 4445 ft 214 kts 276°
2026-05-06 14:36 34.60954 135.64893 4234 ft 209 kts 303°
2026-05-06 14:36 34.61926 135.63651 4148 ft 198 kts 313°
2026-05-06 14:36 34.62893 135.62490 3948 ft 194 kts 313°
2026-05-06 14:36 34.63836 135.61354 3705 ft 193 kts 313°
2026-05-06 14:37 34.64786 135.60209 3443 ft 192 kts 313°
2026-05-06 14:37 34.65730 135.59071 3185 ft 191 kts 313°
2026-05-06 14:37 34.66670 135.57937 2926 ft 190 kts 314°
2026-05-06 14:37 34.67619 135.56792 2680 ft 187 kts 314°
2026-05-06 14:38 34.68506 135.55723 2433 ft 178 kts 314°
2026-05-06 14:38 34.69365 135.54686 2204 ft 170 kts 314°
2026-05-06 14:38 34.70191 135.53688 2003 ft 164 kts 314°
2026-05-06 14:38 34.70968 135.52750 1798 ft 150 kts 315°
2026-05-06 14:39 34.71687 135.51881 1593 ft 143 kts 315°
2026-05-06 14:39 34.72383 135.51040 1411 ft 140 kts 315°
2026-05-06 14:39 34.73057 135.50226 1223 ft 133 kts 315°
2026-05-06 14:39 34.73702 135.49446 1047 ft 129 kts 315°
2026-05-06 14:40 34.74336 135.48679 879 ft 128 kts 316°
2026-05-06 14:40 34.74966 135.47918 710 ft 128 kts 316°
2026-05-06 14:40 34.75592 135.47159 542 ft 127 kts 316°
2026-05-06 14:40 34.76218 135.46402 372 ft 127 kts 316°
2026-05-06 14:41 34.76843 135.45648 208 ft 126 kts 317°
2026-05-06 14:41 34.77466 135.44893 52 ft 125 kts 316°
2026-05-06 14:41 34.77973 135.44275 51 ft 66 kts 315°
2026-05-06 14:41 34.78149 135.44082 52 ft 21 kts 325°
2026-05-06 14:42 34.78282 135.44007 52 ft 22 kts 345°
2026-05-06 14:42 34.78417 135.44005 51 ft 13 kts 16°
2026-05-06 14:42 34.78434 135.44012 51 ft 0 kts 20°
2026-05-06 14:43 34.78464 135.44029 51 ft 11 kts 27°
2026-05-06 14:43 34.78532 135.44092 51 ft 13 kts 44°
2026-05-06 14:43 34.78582 135.44170 50 ft 9 kts 85°
2026-05-06 14:43 34.78550 135.44237 49 ft 10 kts 136°
2026-05-06 14:44 34.78522 135.44307 50 ft 10 kts 74°
2026-05-06 14:44 34.78576 135.44353 48 ft 10 kts 37°
2026-05-06 14:44 34.78634 135.44403 50 ft 11 kts 12°
2026-05-06 14:45 34.78710 135.44388 50 ft 1 kts 348°
2026-05-06 14:45 34.78711 135.44387 50 ft 0 kts 348°